Location: Mladá Boleslav
(50.4134°N, 14.9084°E)
Time: 12:46:38
(UTC+02:00)

KKS-1 - Pass Details

Date: 01 June 2024
Orbit: 626 x 640 km, 98.1° (Epoch: 16 June)

Event Time Altitude Azimuth Distance (km) Brightness Sun altitude
Rises 00:18:29 0° 16° (NNE) 2,938 ? -17.0°
Reaches altitude 10° 00:20:43 10° 19° (NNE) 2,023 ? -17.0°
Maximum altitude 00:25:06 69° 102° (ESE) 678 ? -17.1°
Enters shadow 00:26:55 34° 177° (S) 1,039 ? -17.2°
